Location: *
(12.5665°N, 8.3471°E)
Time: 20:48:49
(UTC+00:00)

Cosmos 2084 Rocket - Pass Details

Date: 23 September 2019
Orbit: 571 x 610 km, 62.8° (Epoch: 18 October)

Event Time Altitude Azimuth Distance (km) Brightness Sun altitude
Exits shadow 03:55:37 - 342° (NNW) 2,661 6.7 -20.4°
Reaches altitude 10° 03:57:31 10° 346° (NNW) 1,912 6.0 -19.9°
Maximum altitude 04:01:45 55° 65° (ENE) 703 4.1 -18.9°
Drops below altitude 10° 04:05:55 10° 143° (SE) 1,888 6.5 -17.9°
Sets 04:08:10 0° 147° (SSE) 2,780 7.3 -17.3°
